Portsmouth, NH

8:57 AM EDT on May 23, 2017 (GMT -0400)
Pease International Tradeport

Weather History for KPSM - February, 2015

Change the Weather History Date:

Sunday, February 15, 2015

  Actual Average Record
Temperature  
Mean Temperature 7 °F -  
Max Temperature 18 °F 34 °F 53 °F (2006)
Min Temperature -4 °F 18 °F -8 °F (1987)
Degree Days  
Heating Degree Days 58    
Moisture  
Dew Point 5 °F    
Average Humidity 70    
Maximum Humidity 86    
Minimum Humidity 46    
Precipitation  
Precipitation 0.08 in - - ()
Snow  
Snow 0.00 in - - ()
Snow Depth 34.00 in    
Sea Level Pressure  
Sea Level Pressure 29.49 in    
Wind  
Wind Speed 18 mph (NNW)    
Max Wind Speed 31 mph    
Max Gust Speed 46 mph    
Visibility 4 miles    
Events Fog , Snow    
Averages and records for this station are not official NWS values.
T = Trace of Precipitation, MM = Missing Value Source: NWS Daily Summary

Daily Weather History Graph

Daily Weather History Graph

Search for Another Location

Airport or City:

Trip Planner

Search our weather history database for the weather conditions in past years. The results will help you decide how hot, cold, wet, or windy it might be!

Date:

Astronomy

Feb. 15, 2015 Rise Set
Actual Time 6:41 AM EST 5:14 PM EST
Civil Twilight 6:12 AM EST 5:43 PM EST
Nautical Twilight 5:38 AM EST 6:16 PM EST
Astronomical Twilight 5:05 AM EST 6:49 PM EST
Moon 3:41 AM EST (2/15) 1:41 PM EST (2/15)
Length of Visible Light 11h 31m
Length of Day
10h 32m
Waning Crescent, 15% of the Moon is Illuminated
Feb 15
Waning Crescent
Feb 18
New
Feb 25
First Quarter
Mar 5
Full
Mar 13
Last Quarter

Hourly Weather History & Observations

Time (EST) Temp. Windchill Dew Point Humidity Pressure Visibility Wind Dir Wind Speed Gust Speed Precip Events Conditions
12:07 AM 14.0 °F -0.2 °F 10.4 °F 86% 29.48 in 0.5 mi North 12.7 mph 20.7 mph N/A Snow Snow
12:32 AM 14.0 °F -0.8 °F 10.4 °F 86% 29.45 in 0.6 mi North 13.8 mph 21.9 mph N/A Snow Light Snow
12:58 AM 14.2 °F -1.7 °F 10.4 °F 85% 29.44 in 0.6 mi North 16.1 mph 20.7 mph 0.02 in Snow Light Snow
1:58 AM 15.3 °F 0.2 °F 11.3 °F 84% 29.43 in 0.8 mi North 15.0 mph 21.9 mph 0.01 in Snow Light Snow
2:13 AM 15.8 °F 0.9 °F 12.2 °F 86% 29.40 in 1.0 mi NNE 15.0 mph 26.5 mph N/A Snow Light Snow
2:43 AM 15.8 °F -1.1 °F 12.2 °F 86% 29.36 in 1.2 mi North 19.6 mph 29.9 mph N/A Snow Light Snow
2:58 AM 16.5 °F -0.6 °F 12.4 °F 84% 29.38 in 1.2 mi North 20.7 mph 28.8 mph 0.01 in Snow Light Snow
3:13 AM 17.6 °F 2.2 °F 12.2 °F 79% 29.36 in 1.5 mi North 17.3 mph 25.3 mph N/A Snow Light Snow
3:58 AM 17.6 °F 0.9 °F 13.1 °F 83% 29.35 in 2.0 mi North 20.7 mph 31.1 mph 0.00 in Snow Light Snow
4:43 AM 17.6 °F 2.7 °F 14.0 °F 86% 29.34 in 1.0 mi North 16.1 mph 28.8 mph N/A Snow Light Snow
4:58 AM 18.0 °F 1.3 °F 14.0 °F 84% 29.36 in 0.5 mi North 20.7 mph 29.9 mph 0.01 in Fog , Snow Light Snow
5:17 AM 17.6 °F 2.2 °F 14.0 °F 86% 29.35 in 1.2 mi North 17.3 mph 28.8 mph N/A Snow Light Snow
5:30 AM 17.6 °F 1.7 °F 12.2 °F 79% 29.35 in 2.5 mi North 18.4 mph 29.9 mph N/A Snow Light Snow
5:43 AM 17.6 °F 2.7 °F 12.2 °F 79% 29.34 in 4.0 mi North 16.1 mph 29.9 mph N/A Snow Light Snow
5:58 AM 17.4 °F 0.6 °F 12.4 °F 81% 29.35 in 3.0 mi North 20.7 mph 31.1 mph 0.00 in Snow Light Snow
6:34 AM 17.6 °F 1.3 °F 12.2 °F 79% 29.37 in 4.0 mi North 19.6 mph 31.1 mph N/A Snow Light Snow
6:58 AM 17.6 °F 1.3 °F 11.7 °F 78% 29.40 in 4.0 mi North 19.6 mph 33.4 mph 0.01 in Snow Light Snow
7:20 AM 17.6 °F 0.5 °F 10.4 °F 73% 29.40 in 1.2 mi North 21.9 mph 29.9 mph N/A Snow Light Snow
7:58 AM 17.1 °F 2.0 °F 11.3 °F 78% 29.45 in 2.0 mi North 16.1 mph 27.6 mph 0.01 in Snow Light Snow
8:15 AM 17.6 °F 3.2 °F 12.2 °F 79% 29.44 in 1.5 mi North 15.0 mph 26.5 mph N/A Snow Light Snow
8:35 AM 17.6 °F 1.3 °F 10.4 °F 73% 29.45 in 2.0 mi North 19.6 mph 26.5 mph N/A Snow Light Snow
8:58 AM 17.6 °F 1.7 °F 11.3 °F 76% 29.47 in 6.0 mi NNW 18.4 mph 26.5 mph 0.01 in Snow Light Snow
9:58 AM 18.0 °F -0.8 °F 9.0 °F 68% 29.49 in 6.0 mi NNW 27.6 mph 34.5 mph 0.00 in Snow Light Snow
10:13 AM 17.6 °F 0.1 °F 8.6 °F 68% 29.48 in 6.0 mi North 23.0 mph 32.2 mph N/A Snow Blowing Snow
10:43 AM 17.6 °F -1.0 °F 6.8 °F 63% 29.49 in 1.5 mi North 26.5 mph 35.7 mph N/A Snow Blowing Snow
10:58 AM 18.9 °F 2.5 °F 6.3 °F 58% 29.51 in 7.0 mi North 20.7 mph 31.1 mph 0.00 in   Overcast
11:58 AM 18.1 °F -1.2 °F 6.8 °F 61% 29.51 in 7.0 mi NNW 29.9 mph 34.5 mph N/A   Overcast
12:58 PM 18.1 °F 0.4 °F 4.6 °F 56% 29.52 in 7.0 mi NW 24.2 mph 29.9 mph N/A   Overcast
1:58 PM 16.3 °F -1.6 °F 1.9 °F 53% 29.52 in 10.0 mi WNW 23.0 mph 29.9 mph N/A   Mostly Cloudy
2:58 PM 17.1 °F 0.1 °F -0.8 °F 46% 29.55 in 10.0 mi WNW 20.7 mph 28.8 mph N/A   Mostly Cloudy
3:58 PM 14.4 °F -3.0 °F -2.9 °F 46% 29.60 in 10.0 mi West 19.6 mph 36.8 mph N/A   Scattered Clouds
4:58 PM 9.0 °F -10.5 °F -6.9 °F 49% 29.65 in 10.0 mi WNW 20.7 mph 31.1 mph N/A   Partly Cloudy
5:58 PM 5.9 °F -15.9 °F -9.9 °F 48% 29.68 in 6.0 mi WNW 24.2 mph 34.5 mph N/A Snow Blowing Snow
6:58 PM 3.0 °F -22.1 °F -9.0 °F 57% 29.71 in 5.0 mi WNW 31.1 mph 46.0 mph N/A Snow Blowing Snow
7:58 PM 0.5 °F -25.1 °F -12.3 °F 55% 29.74 in 3.0 mi WNW 29.9 mph 39.1 mph N/A Snow Blowing Snow
8:58 PM -1.5 °F -24.3 °F -13.0 °F 58% 29.78 in 5.0 mi WNW 20.7 mph 39.1 mph N/A Snow Blowing Snow
9:58 PM -3.1 °F -23.3 °F -17.1 °F 51% 29.78 in 5.0 mi WNW 15.0 mph 29.9 mph N/A Snow Blowing Snow
10:58 PM -4.0 °F -28.6 °F -16.6 °F 55% 29.76 in 6.0 mi WNW 23.0 mph 36.8 mph N/A Snow Blowing Snow
11:58 PM -4.4 °F -26.9 °F -17.1 °F 54% 29.75 in 6.0 mi West 18.4 mph 31.1 mph N/A Snow Blowing Snow